Location: Chervonnoye
(48.6000°N, 34.4000°E)
Time: 07:43:30
(UTC+00:00)

Nadezhda 1 Rocket - Pass Details

Date: 24 April 2021
Orbit: 940 x 1006 km, 83.0° (Epoch: 13 May)

Event Time Altitude Azimuth Distance (km) Brightness Sun altitude
Exits shadow 23:09:11 24° 270° (W) 1,939 5.3 -25.2°
Maximum altitude 23:10:48 27° 294° (WNW) 1,830 5.4 -25.0°
Drops below altitude 10° 23:16:06 10° 350° (N) 2,771 7.1 -24.7°
Sets 23:19:05 0° 3° (N) 3,715 8.1 -24.5°
